Tracking 28081 objects as of 27-Sep-2023
HD Live streaming from Space Station
objects crossing your sky now

STARLINK-5708

Track STARLINK-5708 now!
10-day predictions
STARLINK-5708 is classified as:


NORAD ID: 55470
Int'l Code: 2023-015X
Perigee: 565.3 km
Apogee: 567.1 km
Inclination: 43.0 °
Period: 95.8 minutes
Semi major axis: 6937 km
RCS: Unknown
Launch date: February 2, 2023
Source: United States (US)
Launch site: AIR FORCE EASTERN TEST RANGE (AFETR)
Your satellite tracking list
Your tracking list is empty




NASA's NSSDC Master Catalog

Two Line Element Set (TLE):
1 55470U 23015X   23269.81039274 -.00000780  00000-0 -42684-4 0  9993
2 55470  43.0025 148.2805 0001289 268.3592  91.7103 15.02532756 36141
Source of the keplerian elements: AFSPC